星链-3797 (STARLINK-3797 )

导读 | 星芒AI

STARLINK-3797 是 SpaceX 星链计划中的一颗低轨通信卫星,属于第 11 批(V1.5 版本)发射的星链卫星群。该卫星于 2023 年 6 月 由猎鹰 9 号火箭送入近地轨道,旨在为全球提供高速互联网服务。它运行在约 550 公里的高度,设计寿命为 5 至 7 年,并配备激光通信系统以提升网络效率。星链项目通过部署数千颗卫星,致力于实现全球覆盖,特别是在偏远和网络基础设施薄弱地区。

基本信息
目录编号:
52337
目录名称:
STARLINK-3797
国际标识:
2022-045G
轨道中心:
EARTH
卫星名称:
星链-3797
卫星全名:
星链-3797 (STARLINK-3797 )
卫星状态:
在轨 (已飞行1332 天)
发射日期:
2022-04-29 UTC
国别 :
美国 (US)
星等 :
--
轨道信息
数据来源 国际轨道数据 AOE轨道数据
星历时间 2025-12-21T02:13:23+0800
6小时前
查看轨道信息
2025-12-18T07:00:00+0800
3天前
查看轨道信息
半长轴 6917.886km 6917.907km
偏心率 0.0001713 0.0001618
轨道倾角 53.217° 53.216°
近地点辐角 85.381° 77.351°
升交点赤经 203.456° 216.031°
平近点角 274.738° 180.248°
近地点 538.563km 538.652km
远地点 540.935km 540.892km
周期 95.438分钟 95.438分钟
每日圈数 15.088384 15.088315
详细信息
固有亮度:
5
最大亮度:
2.5
卫星平台:
Starlink v1.5
覆盖范围:
全球
运营商:
太空探索技术公司
运营商所在国:
美国
制造商(研发单位):
太空探索技术公司
制造商所在国:
美国
使用方式:
暂无
卫星简介
星链(Starlink)计划是由太空探索技术公司(SpaceX)提出的一个巨型低轨卫星互联网星座项目,计划在2019年至2024年间在太空搭建由约1.2万颗卫星组成的“星链”网络,其中1584颗将部署在地球上空550千米处的近地轨道,并从2020年开始工作。该卫星仍在工作。
2D轨道图
3D轨道图
轨道高度分析图
轨道倾角分析图
轨道综合分析图
查看轨道综合分析图